Regional Weather Roundup
Issued by NWS

Home | Current Version | Previous Version | Graphics & Text | Print | Product List | Glossary Off
Versions: 1 2 3 4 5 6 7 8 9 10 11 12 13 14 15 16 17 18 19 20 21 22 23 24 25 26 27 28 29 30 31 32 33 34 35 36 37 38 39 40 41 42 43 44 45 46 47 48 49 50

000
ASUS44 KMEG 251810
RWRTN
TENNESSEE HOURLY STATE WEATHER ROUNDUP
NATIONAL WEATHER SERVICE MEMPHIS TN
100 PM CDT SAT MAR 25 2017

TNZ002-004-019-021-049-052-054-088>092-251900-
WEST TENNESSEE

CITY           SKY/WX    TMP DP  RH WIND       PRES   REMARKS
MEMPHIS INTL   CLOUDY    64  58  80 S15       29.94F
NWS MEMPHIS      N/A     64 N/A N/A MISG        N/A
JACKSON        PTSUNNY   63  59  87 S15       29.98F
DYERSBURG      CLOUDY    64  58  80 S15G23    29.95F
SOMERVILLE     PTSUNNY   64  59  82 S13G24    29.96F
BOLIVAR        CLOUDY    63  57  82 S17G24    29.99S
PARIS          MOSUNNY   66  54  63 S18       29.98F
HUNTINGDON     CLOUDY    64  57  77 S17G26    29.97F
SAVANNAH       PTSUNNY   61  59  94 S13G22    30.03R FOG
$$

TNZ008-025-027-028-033-062-065-066-251900-
NORTH MIDDLE TENNESSEE

CITY           SKY/WX    TMP DP  RH WIND       PRES   REMARKS
NASHVILLE      PTSUNNY   74  53  48 S20G28    30.06F
PORTLAND       PTSUNNY   73  52  46 S21G26    30.05F
CLARKSVILLE    FAIR      72  52  49 S13G22    30.00F
SMYRNA         PTSUNNY   73  54  51 S13G26    30.07F
COOKEVILLE     SUNNY     73  52  46 S13G23    30.10F
GALLATIN       PTSUNNY   73  52  46 S17G31    30.08F
CROSSVILLE     FAIR      67  50  54 S8G22     30.16F
$$

TNZ061-075-076-078-094-096-097-251900-
SOUTH MIDDLE TENNESSEE

CITY           SKY/WX    TMP DP  RH WIND       PRES   REMARKS
FAYETTEVILLE   CLOUDY    72  54  53 S15G28    30.09F
TULLAHOMA      MOSUNNY   72  50  46 S13       30.11F
WINCHESTER     CLOUDY    72  54  53 S18       30.12F
MCMINNVILLE    SUNNY     73  52  46 S10       30.11F
COLUMBIA       MOSUNNY   72  57  60 S13G24    30.04F
SHELBYVILLE    SUNNY     75  55  50 S17       30.09F
$$

TNZ017-018-042-046-047-251900-
NORTHEAST TENNESSEE

CITY           SKY/WX    TMP DP  RH WIND       PRES   REMARKS
TRI CITIES     PTSUNNY   72  48  42 SW7       30.20F
ELIZABETHTON   FAIR      75  48  38 W7        30.19F
$$

TNZ012-013-036-069-073-074-251900-
CENTRAL EAST TENNESSEE

CITY           SKY/WX    TMP DP  RH WIND       PRES   REMARKS
KNOXVILLE      PTSUNNY   72  48  42 S14G22    30.16F
OAK RIDGE      FAIR      73  48  41 S10G20    30.17F
DOWNTOWN KNOXV SUNNY     75  50  41 SW12      30.17F
GATLINBURG     PTSUNNY   73  46  38 VRB7      30.16F
MORRISTOWN     SUNNY     72  48  43 VRB5G13   30.18F
JACKSBORO      MOSUNNY   72  50  46 S17G24    30.19F
$$

TNZ083-085-099-251900-
SOUTHEAST TENNESSEE

CITY           SKY/WX    TMP DP  RH WIND       PRES   REMARKS
CHATTANOOGA    PTSUNNY   73  52  47 SE13      30.15F
$$

SKY/WX REPORTED AS FAIR MEANS FEW OR NO CLOUDS BELOW
12 THOUSAND FEET.




USA.gov is the U.S. government's official web portal to all federal, state and local government web resources and services.